User: anonymous   Login
Location: Alfortville
(48.8058°N, 2.4204°E)
Time: 11:52:09
(UTC+00:00)
Language:

YAOGAN 1 - Orbit

View from above orbital plane
View from above orbital plane
View from above satellite
View from above satellite

Ground track
Ground track

The orbit data is extracted from the following two-line orbital elements,

1 29092U 06015A   22021.82464810  .00000219  00000-0  33274-4 0  9999
2 29092  97.8893  51.7334 0001450  90.7856 269.3524 14.83256952851208
Epoch (UTC): 21 January 2022 19:47:29
Eccentricity: 0.0001450
inclination: 97.8893°
perigee height: 618 km
apogee height: 620 km
right ascension of ascending node: 51.7334°
argument of perigee: 90.7856°
revolutions per day: 14.83256952
mean anomaly at epoch: 269.3524°
orbit number at epoch: 85120

The dashed part of the orbit path shows where the satellite is in the earth's shadow,  

DLR